Location: York
(31.8935°S, 116.7682°E)
Time: 22:12:38
(UTC+08:00)

Envisat - Pass Details

Date: 24 May 2021
Orbit: 764 x 766 km, 98.1° (Epoch: 13 June)

Event Time Altitude Azimuth Distance (km) Brightness Sun altitude
Rises 04:10:42 0° 39° (NE) 3,221 6.7 -35.5°
Reaches altitude 10° 04:13:13 10° 49° (NE) 2,303 6.0 -35.0°
Maximum altitude 04:17:37 30° 109° (ESE) 1,347 4.6 -34.1°
Enters shadow 04:18:56 27° 136° (SE) 1,460 4.7 -33.8°
